Le nostre stazioni meteo in Italia

Pubblicità
Il mio iltempo24.it
Pratica Di Mare, Italia (16245): Temperatura & dewpoint: 13.04.2019 17:00:00 - 19.04.2019 17:00:00 (CEST)Pratica Di Mare, Italia (16245): velocità del vento: 13.04.2019 17:00:00 - 19.04.2019 17:00:00 (CEST)Pratica Di Mare, Italia (16245): direzione del vento: 13.04.2019 17:00:00 - 19.04.2019 17:00:00 (CEST)Pratica Di Mare, Italia (16245): reduced air pressure: 13.04.2019 17:00:00 - 19.04.2019 17:00:00 (CEST)Pratica Di Mare, Italia (16245): visibility: 13.04.2019 17:00:00 - 19.04.2019 17:00:00 (CEST)
Data & Tempo tt [°C] td [°C] ff [km/h] ff [kn] dd ppp [hPa] vv [km]
19.04.2019 17:00:00 18,0 8,0 11 6 OSO 1026,4 20
19.04.2019 16:00:00 18,0 7,0 11 6 SO - 10
19.04.2019 15:00:00 19,0 6,0 13 7 SO - 10
19.04.2019 14:00:00 18,6 6,1 13 7 SO 1026,6 20
19.04.2019 13:00:00 18,0 4,0 16 9 SO - 10
19.04.2019 12:00:00 18,0 5,0 15 8 SO - 10
19.04.2019 11:00:00 18,2 6,4 4 2 N 1026,2 15
19.04.2019 10:00:00 17,0 7,0 4 2 - - 10
19.04.2019 09:00:00 16,0 7,0 2 1 SO - 10
19.04.2019 08:00:00 13,4 10,0 4 2 ONO 1025,8 15
19.04.2019 07:00:00 11,0 8,0 5 3 NNE - 10
19.04.2019 06:00:00 11,0 7,0 5 3 NNE - 10
19.04.2019 05:00:00 11,0 4,7 8 4 NE 1024,6 15
19.04.2019 04:00:00 11,0 5,0 5 3 NE - 10
19.04.2019 03:00:00 13,0 7,0 5 3 ENE - 10
19.04.2019 02:00:00 13,0 7,0 4 2 NNE 1024,6 15
19.04.2019 01:00:00 14,0 8,0 5 3 NE - 10
19.04.2019 00:00:00 14,0 8,0 4 2 ESE - 10
18.04.2019 23:00:00 14,0 6,8 5 3 NNE 1023,1 15
18.04.2019 22:00:00 13,0 7,0 8 4 N - 10
18.04.2019 21:00:00 14,0 7,0 5 3 NNE - 10
18.04.2019 20:00:00 16,0 5,0 4 2 NO 1021,7 12
18.04.2019 19:00:00 18,0 8,0 5 3 O - 10
18.04.2019 18:00:00 18,0 12,0 9 5 OSO - 10
18.04.2019 17:00:00 18,4 9,5 11 6 OSO 1021,6 15
18.04.2019 16:00:00 18,0 11,0 11 6 OSO - 10
18.04.2019 15:00:00 19,0 10,0 11 6 SO - 10
18.04.2019 14:00:00 18,2 8,7 15 8 SO 1021,8 15
18.04.2019 13:00:00 18,0 8,0 13 7 SSO - 10
18.04.2019 12:00:00 18,0 9,0 15 8 SSO - 10
18.04.2019 11:00:00 18,0 8,0 11 6 S 1021,8 15
18.04.2019 10:00:00 17,0 7,0 8 4 S - 10
18.04.2019 09:00:00 15,0 10,0 4 2 SSE - 10
18.04.2019 08:00:00 12,0 9,2 11 6 NNE 1021,4 10
18.04.2019 07:00:00 9,0 7,0 11 6 NNE - 10
18.04.2019 06:00:00 9,0 8,0 4 2 NNE - 10
18.04.2019 05:00:00 9,0 7,3 5 3 NNE 1020,4 10
18.04.2019 04:00:00 10,0 8,0 8 4 NNE - 10
18.04.2019 03:00:00 9,0 7,0 9 5 N - 10
18.04.2019 02:00:00 8,4 6,9 8 4 NNO 1020,6 10
18.04.2019 01:00:00 9,0 7,0 4 2 NNO - 10
18.04.2019 00:00:00 10,0 8,0 8 4 NE - 10
17.04.2019 23:00:00 10,0 8,4 0 0 N 1020,8 10
17.04.2019 22:00:00 11,0 9,0 5 3 NE - 10
17.04.2019 21:00:00 12,0 10,0 5 3 NE - 10
17.04.2019 20:00:00 14,0 11,5 9 5 ONO 1019,6 15
17.04.2019 19:00:00 15,0 11,0 15 8 O - 10
17.04.2019 18:00:00 16,0 11,0 16 9 ONO - 10
17.04.2019 17:00:00 16,2 12,4 21 11 O 1019,6 20
17.04.2019 16:00:00 17,0 11,0 22 12 O - 10
17.04.2019 15:00:00 17,0 11,0 21 11 O - 10
17.04.2019 14:00:00 17,4 11,2 22 12 O 1020,2 20
17.04.2019 13:00:00 17,0 8,0 21 11 O - 10
17.04.2019 12:00:00 17,0 10,0 18 10 O - 10
17.04.2019 11:00:00 16,2 6,6 5 3 NNO 1019,8 20
17.04.2019 10:00:00 15,0 7,0 13 7 N - 10
17.04.2019 09:00:00 13,0 7,0 8 4 N - 10
17.04.2019 08:00:00 9,6 6,3 8 4 N 1019,9 25
17.04.2019 07:00:00 8,0 6,0 13 7 NNE - 10
17.04.2019 06:00:00 9,0 6,0 11 6 NNE - 10
17.04.2019 05:00:00 8,8 6,4 11 6 NNE 1019,8 12
17.04.2019 04:00:00 8,0 7,0 2 1 NO - 10
17.04.2019 03:00:00 9,0 8,0 2 1 NO - 10
17.04.2019 02:00:00 9,6 8,1 8 4 NNE 1020,3 12
17.04.2019 01:00:00 10,0 8,0 5 3 N - 10
17.04.2019 00:00:00 12,0 9,0 8 4 NNE - 10
16.04.2019 23:00:00 12,0 9,9 5 3 NNE 1020,4 15
16.04.2019 22:00:00 13,0 11,0 5 3 NNE - 10
16.04.2019 21:00:00 13,0 10,0 11 6 NNE - 10
16.04.2019 20:00:00 14,2 9,6 5 3 NNO 1020,1 10
16.04.2019 19:00:00 15,0 10,0 9 5 ONO - 10
16.04.2019 18:00:00 16,0 10,0 15 8 O - 10
16.04.2019 17:00:00 16,2 9,9 15 8 OSO 1019,9 15
16.04.2019 16:00:00 16,0 10,0 15 8 OSO - 10
16.04.2019 15:00:00 16,0 12,0 15 8 SO - 10
16.04.2019 14:00:00 15,8 12,6 16 9 SSO 1019,9 10
16.04.2019 13:00:00 16,0 12,0 16 9 S - 10
16.04.2019 12:00:00 16,0 13,0 18 10 S - 10
16.04.2019 11:00:00 16,4 11,8 21 11 S 1019,6 15
16.04.2019 10:00:00 16,0 12,0 18 10 SSE - 10
16.04.2019 09:00:00 15,0 10,0 15 8 SE - 10
16.04.2019 08:00:00 12,0 8,3 13 7 ESE 1018,6 18
16.04.2019 07:00:00 11,0 8,0 16 9 E - 10
16.04.2019 06:00:00 11,0 10,0 15 8 ESE - 10
16.04.2019 05:00:00 11,4 9,8 13 7 ESE 1018,1 15
16.04.2019 04:00:00 12,0 10,0 13 7 SSE - 10
16.04.2019 03:00:00 12,0 10,0 8 4 S - 10
16.04.2019 02:00:00 12,6 10,7 15 8 ESE 1017,6 15
16.04.2019 01:00:00 13,0 11,0 18 10 E - 10
16.04.2019 00:00:00 13,0 10,0 15 8 E - 10
15.04.2019 23:00:00 13,6 10,0 9 5 ENE 1016,8 15
15.04.2019 22:00:00 14,0 10,0 8 4 NE - 10
15.04.2019 21:00:00 14,0 11,0 9 5 NNO - 10
15.04.2019 20:00:00 15,6 11,8 13 7 ONO 1015,4 15
15.04.2019 19:00:00 18,0 10,0 18 10 ONO - 10
15.04.2019 18:00:00 19,0 8,0 28 15 ONO - 10
15.04.2019 17:00:00 19,8 4,3 11 6 N 1014,2 25
15.04.2019 16:00:00 20,0 5,0 11 6 NNO - 10
15.04.2019 15:00:00 19,0 4,0 15 8 N - 10
15.04.2019 14:00:00 19,6 4,5 9 5 NNO 1014,2 25
15.04.2019 13:00:00 18,0 5,0 15 8 NNE - 10
15.04.2019 12:00:00 17,0 6,0 21 11 NNE - 10
15.04.2019 11:00:00 15,6 7,1 22 12 NNE 1013,7 25
15.04.2019 10:00:00 13,0 7,0 24 13 NNE - 10
15.04.2019 09:00:00 11,0 6,0 22 12 NNE - 10
15.04.2019 08:00:00 7,8 4,9 21 11 NNE 1012,4 15
15.04.2019 07:00:00 7,0 5,0 15 8 NNE - 10
15.04.2019 06:00:00 8,0 6,0 16 9 NNE - 10
15.04.2019 05:00:00 8,0 5,3 16 9 NE 1010,7 10
15.04.2019 04:00:00 8,0 5,0 16 9 N - 10
15.04.2019 03:00:00 8,0 5,0 8 4 N - 10
15.04.2019 02:00:00 7,4 4,4 8 4 NO 1010,0 10
15.04.2019 01:00:00 8,0 6,0 9 5 SSE - 10
15.04.2019 00:00:00 9,0 5,0 16 9 E - 10
14.04.2019 23:00:00 9,4 5,0 15 8 ESE 1009,7 10
14.04.2019 22:00:00 10,0 5,0 21 11 E - 10
14.04.2019 21:00:00 11,0 7,0 15 8 E - 10
14.04.2019 20:00:00 11,6 6,3 15 8 E 1009,4 10
14.04.2019 19:00:00 11,0 8,0 15 8 SE - 10
14.04.2019 18:00:00 15,0 10,0 18 10 S - 10
14.04.2019 17:00:00 15,6 11,0 22 12 S 1010,4 12
14.04.2019 16:00:00 16,0 9,0 21 11 SSO - 10
14.04.2019 15:00:00 16,0 9,0 24 13 SSO - 10
14.04.2019 14:00:00 16,2 9,9 18 10 SSO 1010,9 12
14.04.2019 13:00:00 15,0 11,0 24 13 S - 10
14.04.2019 12:00:00 16,0 10,0 18 10 S - 10
14.04.2019 11:00:00 14,6 11,0 16 9 SSE 1011,7 12
14.04.2019 10:00:00 14,0 10,0 15 8 SSE - 10
14.04.2019 09:00:00 12,0 9,0 11 6 SSE - 10
14.04.2019 08:00:00 10,4 8,5 4 2 N 1011,8 12
14.04.2019 07:00:00 11,0 9,0 4 2 - - 10
14.04.2019 06:00:00 10,0 9,0 2 1 - - 10
14.04.2019 05:00:00 10,0 8,4 4 2 E 1012,2 12
14.04.2019 04:00:00 10,0 8,0 4 2 E - 10
14.04.2019 03:00:00 10,0 8,0 2 1 - - 10
14.04.2019 02:00:00 9,8 8,2 8 4 NNE 1012,6 12
14.04.2019 01:00:00 11,0 9,0 5 3 NNE - 10
14.04.2019 00:00:00 10,0 9,0 8 4 NNE - 10
13.04.2019 23:00:00 10,8 8,9 2 1 NE 1012,4 12
13.04.2019 22:00:00 12,0 10,0 5 3 NE - 10
13.04.2019 21:00:00 12,0 10,0 5 3 ONO - 10
13.04.2019 20:00:00 12,8 8,9 4 2 OSO 1011,5 15
13.04.2019 19:00:00 15,0 10,0 9 5 OSO - 10
13.04.2019 18:00:00 15,0 10,0 13 7 OSO - 10
13.04.2019 17:00:00 16,4 10,9 18 10 O 1011,3 15

tt = Temperatura
td = dewpoint
ff = velocità del vento
dd = direzione del vento
ppp = reduced air pressure
vv = visibility

Stazioni seguenti

WeatherPro
AMSI
MeteoEarth